Courtland, AL

3:25 PM CST on December 07, 2016 (GMT -0600)
Courtland

Weather History for K9A4 - December, 2012

Change the Weather History Date:

Tuesday, December 25, 2012

  Actual Average (KMSL) Record (KMSL)
Temperature  
Mean Temperature 46 °F 42 °F  
Max Temperature 53 °F 51 °F 75 °F (1987)
Min Temperature 41 °F 32 °F 1 °F (1983)
Degree Days  
Heating Degree Days 19 23  
Month to date heating degree days 530  
Since 1 July heating degree days 1092  
Cooling Degree Days 0 0  
Month to date cooling degree days 0  
Year to date cooling degree days 1871  
Moisture  
Dew Point 46 °F    
Average Humidity 99    
Maximum Humidity 100    
Minimum Humidity 93    
Precipitation  
Precipitation 0.00 in 0.16 in 3.50 in (1914)
Month to date precipitation 4.77  
Year to date precipitation 52.29  
Snow  
Snow 0.00 in - - ()
Month to date snowfall  
Since 1 July snowfall  
Snow Depth -    
Sea Level Pressure  
Sea Level Pressure 29.84 in    
Wind  
Wind Speed 8 mph (ENE)    
Max Wind Speed 20 mph    
Max Gust Speed 26 mph    
Visibility 5 miles    
Events Rain    
T = Trace of Precipitation, MM = Missing Value Source: NWS Daily Summary

Daily Weather History Graph

Daily Weather History Graph

Search for Another Location

Airport or City:

Trip Planner

Search our weather history database for the weather conditions in past years. The results will help you decide how hot, cold, wet, or windy it might be!

Date:

Astronomy

Dec. 25, 2012 Rise Set
Actual Time 6:54 AM CST 4:45 PM CST
Civil Twilight 6:26 AM CST 5:13 PM CST
Nautical Twilight 5:55 AM CST 5:44 PM CST
Astronomical Twilight 5:24 AM CST 6:15 PM CST
Moon 2:51 PM CST (12/25) 4:28 AM CST (12/25)
Length of Visible Light 10h 46m
Length of Day
9h 50m
Waxing Gibbous, 94% of the Moon is Illuminated
Dec 25
Waxing Gibbous
Dec 28
Full
Jan 4
Last Quarter
Jan 11
New
Jan 18
First Quarter

Hourly Weather History & Observations

Time (CST) Temp. Windchill Dew Point Humidity Pressure Visibility Wind Dir Wind Speed Gust Speed Precip Events Conditions
12:15 AM 41.0 °F 39.0 °F 41.0 °F 100% 29.97 in 3.0 mi NNW 3.5 mph - N/A   Clear
12:35 AM 42.8 °F 39.3 °F 42.8 °F 100% 29.97 in 4.0 mi NNW 5.8 mph - N/A   Clear
12:55 AM 42.8 °F 41.1 °F 42.8 °F 100% 29.98 in 3.0 mi North 3.5 mph - N/A   Scattered Clouds
1:15 AM 42.8 °F 41.1 °F 42.8 °F 100% 29.99 in 3.0 mi NNW 3.5 mph - N/A   Overcast
1:35 AM 44.6 °F - 44.6 °F 100% 29.99 in 4.0 mi Calm Calm - N/A   Overcast
1:55 AM 46.4 °F 44.3 °F 46.4 °F 100% 29.99 in 5.0 mi NE 4.6 mph - N/A   Overcast
2:15 AM 46.4 °F 42.9 °F 46.4 °F 100% 29.99 in 5.0 mi NNE 6.9 mph - N/A   Overcast
2:35 AM 46.4 °F 44.3 °F 46.4 °F 100% 29.99 in 5.0 mi NE 4.6 mph - N/A   Overcast
2:55 AM 46.4 °F 43.5 °F 46.4 °F 100% 29.99 in 5.0 mi ENE 5.8 mph - N/A   Overcast
3:15 AM 46.4 °F 44.3 °F 46.4 °F 100% 29.99 in 5.0 mi ENE 4.6 mph - N/A   Overcast
3:35 AM 46.4 °F 43.5 °F 46.4 °F 100% 29.98 in 7.0 mi ENE 5.8 mph - N/A   Overcast
3:55 AM 46.4 °F 42.9 °F 46.4 °F 100% 29.97 in 7.0 mi ENE 6.9 mph - N/A   Overcast
4:15 AM 46.4 °F 42.4 °F 46.4 °F 100% 29.97 in 7.0 mi East 8.1 mph - N/A   Overcast
4:35 AM 46.4 °F 42.4 °F 46.4 °F 100% 29.97 in 7.0 mi ENE 8.1 mph - N/A   Overcast
4:55 AM 46.4 °F 43.5 °F 46.4 °F 100% 29.97 in 7.0 mi ENE 5.8 mph - N/A   Overcast
5:15 AM 46.4 °F 43.5 °F 46.4 °F 100% 29.98 in 7.0 mi East 5.8 mph - N/A   Overcast
5:35 AM 46.4 °F 41.9 °F 46.4 °F 100% 29.96 in 7.0 mi East 9.2 mph - N/A   Overcast
5:55 AM 46.4 °F 41.5 °F 46.4 °F 100% 29.97 in 5.0 mi East 10.4 mph - N/A   Overcast
6:15 AM 46.4 °F 43.5 °F 46.4 °F 100% 29.98 in 5.0 mi ENE 5.8 mph - N/A   Overcast
6:35 AM 46.4 °F 41.1 °F 44.6 °F 93% 29.98 in 5.0 mi East 11.5 mph - N/A   Overcast
6:55 AM 44.6 °F 39.2 °F 44.6 °F 100% 29.98 in 5.0 mi NE 10.4 mph - N/A   Overcast
7:15 AM 44.6 °F 40.2 °F 44.6 °F 100% 29.98 in 3.0 mi NE 8.1 mph 16.1 mph N/A   Overcast
7:35 AM 44.6 °F 40.2 °F 44.6 °F 100% 29.98 in 4.0 mi ENE 8.1 mph - N/A   Overcast
7:55 AM 46.4 °F 43.5 °F 44.6 °F 93% 30.00 in 4.0 mi ENE 5.8 mph - N/A   Overcast
8:15 AM 44.6 °F 41.4 °F 44.6 °F 100% 29.99 in 4.0 mi ENE 5.8 mph - N/A   Overcast
8:35 AM 46.4 °F 42.9 °F 44.6 °F 93% 29.99 in 4.0 mi ENE 6.9 mph - N/A   Overcast
8:55 AM 46.4 °F 42.4 °F 44.6 °F 93% 30.00 in 4.0 mi NE 8.1 mph - N/A   Overcast
9:15 AM 46.4 °F 42.9 °F 44.6 °F 93% 30.01 in 4.0 mi ENE 6.9 mph - N/A   Overcast
9:35 AM 46.4 °F 42.4 °F 44.6 °F 93% 30.00 in 4.0 mi ENE 8.1 mph - N/A   Overcast
9:55 AM 46.4 °F 41.1 °F 44.6 °F 93% 30.00 in 3.0 mi NE 11.5 mph - N/A   Overcast
10:15 AM 44.6 °F 39.7 °F 44.6 °F 100% 30.00 in 3.0 mi NNE 9.2 mph - N/A   Overcast
10:35 AM 44.6 °F 39.2 °F 44.6 °F 100% 30.00 in 2.5 mi ENE 10.4 mph - N/A   Overcast
10:55 AM 44.6 °F 40.2 °F 44.6 °F 100% 29.98 in 2.5 mi NE 8.1 mph - N/A   Overcast
11:15 AM 44.6 °F 39.2 °F 44.6 °F 100% 29.96 in 3.0 mi NE 10.4 mph - N/A   Overcast
11:35 AM 44.6 °F 39.2 °F 44.6 °F 100% 29.96 in 3.0 mi NE 10.4 mph - N/A   Overcast
11:55 AM 44.6 °F 40.7 °F 44.6 °F 100% 29.95 in 3.0 mi ENE 6.9 mph - N/A   Overcast
12:15 PM 44.6 °F 40.2 °F 44.6 °F 100% 29.92 in 3.0 mi NE 8.1 mph - N/A   Overcast
12:35 PM 44.6 °F 40.7 °F 44.6 °F 100% 29.92 in 3.0 mi ENE 6.9 mph - N/A   Overcast
12:55 PM 44.6 °F 39.7 °F 42.8 °F 93% 29.91 in 4.0 mi East 9.2 mph - N/A   Overcast
1:15 PM 44.6 °F 40.2 °F 42.8 °F 93% 29.90 in 4.0 mi ENE 8.1 mph - N/A   Light Drizzle
1:35 PM 44.6 °F 41.4 °F 44.6 °F 100% 29.90 in 3.0 mi East 5.8 mph - N/A Rain Rain
1:55 PM 44.6 °F 43.1 °F 44.6 °F 100% 29.91 in 1.8 mi East 3.5 mph - N/A Rain Rain
2:15 PM 44.6 °F 40.2 °F 44.6 °F 100% 29.90 in 1.8 mi East 8.1 mph - N/A Rain Rain
2:35 PM 44.6 °F 39.7 °F 44.6 °F 100% 29.89 in 1.0 mi East 9.2 mph - N/A Rain Light Rain
2:55 PM 44.6 °F 39.2 °F 44.6 °F 100% 29.84 in 1.2 mi ENE 10.4 mph - N/A Rain Rain
3:15 PM 44.6 °F 38.4 °F 44.6 °F 100% 29.85 in 1.8 mi ENE 12.7 mph - N/A Rain Light Rain
3:35 PM 44.6 °F 39.2 °F 44.6 °F 100% 29.81 in 1.8 mi ENE 10.4 mph - N/A Rain Rain
3:55 PM 44.6 °F 39.2 °F 44.6 °F 100% 29.78 in 1.8 mi East 10.4 mph - N/A   Light Drizzle
4:15 PM 44.6 °F 39.2 °F 44.6 °F 100% 29.77 in 2.0 mi East 10.4 mph - N/A   Overcast
4:55 PM 46.4 °F 41.1 °F 46.4 °F 100% 29.72 in 3.0 mi ENE 11.5 mph - N/A Rain Rain
5:15 PM 46.4 °F 41.9 °F 46.4 °F 100% 29.70 in 4.0 mi ENE 9.2 mph - N/A Rain Rain
5:35 PM 46.4 °F 42.4 °F 46.4 °F 100% 29.69 in 4.0 mi ENE 8.1 mph - N/A Rain Rain
5:55 PM 46.4 °F 43.5 °F 46.4 °F 100% 29.72 in 3.0 mi NE 5.8 mph - N/A Rain Heavy Rain
6:15 PM 46.4 °F 43.5 °F 46.4 °F 100% 29.71 in 1.8 mi NE 5.8 mph - N/A Rain Heavy Rain
6:35 PM 46.4 °F 41.1 °F 46.4 °F 100% 29.69 in 2.5 mi NNE 11.5 mph - N/A Rain Heavy Rain
6:55 PM 46.4 °F 39.5 °F 46.4 °F 100% 29.70 in 3.0 mi NE 17.3 mph 26.5 mph N/A Rain Heavy Rain
7:15 PM 50.0 °F - 48.2 °F 94% 29.65 in 7.0 mi ENE 12.7 mph - N/A Rain Light Rain
7:35 PM 50.0 °F - 50.0 °F 100% 29.63 in 10.0 mi East 19.6 mph - N/A Rain Light Rain
7:55 PM 50.0 °F - 50.0 °F 100% 29.61 in 10.0 mi East 18.4 mph 24.2 mph N/A   Overcast
8:15 PM 50.0 °F - 50.0 °F 100% 29.57 in 10.0 mi East 17.3 mph - N/A   Overcast
8:35 PM 51.8 °F - 51.8 °F 100% 29.53 in 10.0 mi East 16.1 mph - N/A   Mostly Cloudy
8:55 PM 51.8 °F - 51.8 °F 100% 29.54 in 10.0 mi ESE 16.1 mph - N/A   Overcast
9:15 PM 51.8 °F - 51.8 °F 100% 29.51 in 10.0 mi East 17.3 mph 24.2 mph N/A Rain Light Rain
9:35 PM 51.8 °F - 51.8 °F 100% 29.54 in 10.0 mi ESE 11.5 mph 18.4 mph N/A   Overcast
10:15 PM 51.8 °F - 51.8 °F 100% 29.51 in 7.0 mi SE 11.5 mph - N/A Rain Rain
10:35 PM 51.8 °F - 51.8 °F 100% 29.50 in 10.0 mi SE 13.8 mph 19.6 mph N/A Rain Light Rain
10:55 PM 51.8 °F - 51.8 °F 100% 29.47 in 10.0 mi SE 15.0 mph - N/A Rain Light Rain
11:15 PM 51.8 °F - 51.8 °F 100% 29.45 in 10.0 mi ESE 13.8 mph - N/A   Overcast
11:35 PM 51.8 °F - 51.8 °F 100% 29.44 in 10.0 mi SE 17.3 mph 21.9 mph N/A   Overcast
11:55 PM 53.6 °F - 51.8 °F 94% 29.42 in 10.0 mi SSE 13.8 mph - N/A   Overcast